| time (UTC) | temp F | wind direction | speed MPH | gust MPH | rain 1hr in | rain 24hr in | rain mn in | humidity % | barometer mb |
| 20260506033105 | 29 | 57 | 1.0 | 2.0 | 0.00 | 0.00 | 0.00 | 86 | 1012.5 |
| 20260506031603 | 29 | 57 | 0.0 | 2.0 | 0.00 | 0.00 | 0.00 | 89 | 1012.5 |
| 20260506031103 | 28 | 0 | 0.0 | 2.0 | 0.00 | 0.00 | 0.00 | 88 | 1012.5 |
| 20260506030604 | 28 | 57 | 1.0 | 2.0 | 0.00 | 0.00 | 0.00 | 86 | 1012.5 |
| 20260506024103 | 29 | 57 | 1.0 | 1.0 | 0.00 | 0.00 | 0.00 | 87 | 1012.5 |
| 20260506021603 | 29 | 0 | 0.0 | 2.0 | 0.00 | 0.00 | 0.00 | 87 | 1012.5 |
| 20260506020604 | 29 | 57 | 1.0 | 1.0 | 0.00 | 0.00 | 0.00 | 87 | 1012.4 |
| 20260506014603 | 29 | 0 | 0.0 | 1.0 | 0.00 | 0.00 | 0.00 | 87 | 1012.3 |
| 20260506011103 | 29 | 0 | 0.0 | 1.0 | 0.00 | 0.00 | 0.00 | 86 | 1012.1 |
| 20260506010114 | 30 | 57 | 2.0 | 2.0 | 0.00 | 0.00 | 0.00 | 84 | 1012.0 |
| 20260506004103 | 30 | 0 | 0.0 | 2.0 | 0.00 | 0.00 | 0.00 | 87 | 1012.1 |
| 20260506003603 | 30 | 0 | 0.0 | 2.0 | 0.00 | 0.00 | 0.00 | 84 | 1012.1 |
| 20260506003103 | 30 | 57 | 1.0 | 2.0 | 0.00 | 0.00 | 0.00 | 84 | 1012.1 |
| 20260506001104 | 30 | 57 | 1.0 | 2.0 | 0.00 | 0.00 | 0.00 | 82 | 1012.1 |
| 20260505234603 | 31 | 0 | 0.0 | 2.0 | 0.00 | 0.00 | 0.00 | 82 | 1012.2 |
| 20260505231604 | 31 | 61 | 1.0 | 2.0 | 0.00 | 0.00 | 0.00 | 81 | 1012.1 |
| 20260505230603 | 32 | 42 | 1.0 | 2.0 | 0.00 | 0.00 | 0.00 | 82 | 1012.3 |
| 20260505224103 | 32 | 0 | 0.0 | 2.0 | 0.00 | 0.00 | 0.00 | 79 | 1012.3 |
| 20260505223103 | 33 | 68 | 0.0 | 2.0 | 0.00 | 0.00 | 0.00 | 80 | 1012.3 |
| 20260505221604 | 33 | 0 | 0.0 | 2.0 | 0.00 | 0.00 | 0.00 | 79 | 1012.4 |
| 20260505221107 | 33 | 53 | 2.0 | 2.0 | 0.00 | 0.00 | 0.00 | 77 | 1012.4 |
| 20260505214604 | 34 | 0 | 0.0 | 2.0 | 0.00 | 0.14 | 0.00 | 74 | 1012.4 |
| 20260505214103 | 34 | 53 | 1.0 | 2.0 | 0.00 | 0.14 | 0.00 | 72 | 1012.4 |
| 20260505213104 | 35 | 54 | 0.0 | 2.0 | 0.00 | 0.14 | 0.00 | 70 | 1012.3 |
| 20260505211603 | 36 | 0 | 0.0 | 2.0 | 0.00 | 0.14 | 0.00 | 68 | 1012.3 |
| 20260505211105 | 36 | 0 | 0.0 | 2.0 | 0.00 | 0.14 | 0.00 | 67 | 1012.4 |
| 20260505210604 | 36 | 55 | 0.0 | 2.0 | 0.00 | 0.14 | 0.00 | 66 | 1012.3 |
| 20260505210114 | 36 | 55 | 1.0 | 2.0 | 0.00 | 0.14 | 0.00 | 66 | 1012.3 |
| 20260505204604 | 37 | 0 | 0.0 | 1.0 | 0.00 | 0.14 | 0.00 | 64 | 1012.3 |
| 20260505201104 | 42 | 0 | 0.0 | 2.0 | 0.00 | 0.14 | 0.00 | 55 | 1012.2 |
| 20260505200114 | 42 | 263 | 1.0 | 3.0 | 0.00 | 0.14 | 0.00 | 52 | 1012.0 |
| 20260505194103 | 43 | 313 | 1.0 | 2.0 | 0.00 | 0.14 | 0.00 | 53 | 1012.0 |
| 20260505193603 | 44 | 308 | 2.0 | 2.0 | 0.00 | 0.14 | 0.00 | 51 | 1012.0 |
| 20260505191104 | 46 | 274 | 1.0 | 2.0 | 0.00 | 0.14 | 0.00 | 46 | 1011.7 |
| 20260505190605 | 46 | 273 | 1.0 | 2.0 | 0.00 | 0.14 | 0.00 | 43 | 1011.8 |
| 20260505184104 | 48 | 301 | 1.0 | 3.0 | 0.00 | 0.14 | 0.00 | 37 | 1011.6 |
| 20260505183104 | 49 | 296 | 2.0 | 7.0 | 0.00 | 0.14 | 0.00 | 37 | 1011.7 |
| 20260505174103 | 51 | 279 | 2.0 | 6.0 | 0.00 | 0.14 | 0.00 | 31 | 1011.5 |
| 20260505173604 | 51 | 263 | 6.0 | 5.0 | 0.00 | 0.14 | 0.00 | 33 | 1011.5 |
| 20260505173103 | 51 | 293 | 3.0 | 3.0 | 0.00 | 0.14 | 0.00 | 33 | 1011.4 |
| 20260505171103 | 51 | 257 | 8.0 | 8.0 | 0.00 | 0.14 | 0.00 | 32 | 1011.4 |
| 20260505161103 | 52 | 295 | 2.0 | 8.0 | 0.00 | 0.14 | 0.00 | 27 | 1011.3 |
| 20260505160605 | 52 | 336 | 3.0 | 10.0 | 0.00 | 0.14 | 0.00 | 29 | 1011.4 |
| 20260505151603 | 53 | 263 | 10.0 | 10.0 | 0.00 | 0.14 | 0.00 | 27 | 1011.4 |
| 20260505151103 | 53 | 282 | 8.0 | 10.0 | 0.00 | 0.14 | 0.00 | 28 | 1011.4 |
| 20260505150604 | 54 | 273 | 8.0 | 10.0 | 0.00 | 0.14 | 0.00 | 27 | 1011.4 |
| 20260505150114 | 54 | 288 | 1.0 | 12.0 | 0.00 | 0.14 | 0.00 | 28 | 1011.3 |
| 20260505140604 | 53 | 258 | 1.0 | 12.0 | 0.00 | 0.14 | 0.00 | 28 | 1011.2 |
| 20260505140114 | 52 | 262 | 3.0 | 12.0 | 0.00 | 0.14 | 0.00 | 29 | 1011.3 |
| 20260505130114 | 53 | 49 | 2.0 | 12.0 | 0.00 | 0.14 | 0.00 | 31 | 1011.2 |
| 20260505124603 | 53 | 300 | 2.0 | 9.0 | 0.00 | 0.14 | 0.00 | 34 | 1011.1 |
| 20260505124103 | 53 | 299 | 2.0 | 10.0 | 0.00 | 0.14 | 0.00 | 31 | 1011.1 |
| 20260505123603 | 53 | 277 | 7.0 | 16.0 | 0.00 | 0.14 | 0.00 | 31 | 1011.1 |
| 20260505123104 | 53 | 323 | 2.0 | 16.0 | 0.00 | 0.14 | 0.00 | 30 | 1011.2 |
| 20260505121103 | 53 | 274 | 3.0 | 9.0 | 0.00 | 0.14 | 0.00 | 32 | 1011.1 |
| 20260505111104 | 52 | 294 | 5.0 | 10.0 | 0.00 | 0.14 | 0.00 | 32 | 1011.0 |
| 20260505110603 | 52 | 320 | 13.0 | 12.0 | 0.00 | 0.14 | 0.00 | 32 | 1011.0 |
| 20260505101604 | 52 | 242 | 5.0 | 10.0 | 0.00 | 0.14 | 0.00 | 38 | 1010.9 |
| 20260505101104 | 52 | 246 | 2.0 | 14.0 | 0.00 | 0.14 | 0.00 | 34 | 1010.9 |
| 20260505100603 | 51 | 297 | 8.0 | 14.0 | 0.00 | 0.14 | 0.00 | 35 | 1011.0 |
| 20260505094603 | 51 | 273 | 2.0 | 14.0 | 0.00 | 0.14 | 0.00 | 36 | 1010.9 |
| 20260505093604 | 51 | 331 | 2.0 | 17.0 | 0.00 | 0.14 | 0.00 | 39 | 1010.8 |
| 20260505084604 | 50 | 205 | 6.0 | 10.0 | 0.00 | 0.14 | 0.00 | 42 | 1010.6 |
| 20260505083604 | 50 | 291 | 8.0 | 9.0 | 0.00 | 0.14 | 0.00 | 43 | 1010.7 |
| 20260505081104 | 48 | 182 | 1.0 | 10.0 | 0.00 | 0.14 | 0.00 | 44 | 1010.7 |
| 20260505074603 | 48 | 305 | 6.0 | 10.0 | 0.00 | 0.14 | 0.00 | 43 | 1010.6 |
| 20260505073105 | 47 | 0 | 3.0 | 10.0 | 0.00 | 0.14 | 0.00 | 46 | 1010.5 |
| 20260505071603 | 46 | 343 | 2.0 | 8.0 | 0.00 | 0.14 | 0.00 | 47 | 1010.5 |
| 20260505071104 | 46 | 334 | 3.0 | 9.0 | 0.00 | 0.14 | 0.00 | 48 | 1010.5 |
| 20260505070603 | 46 | 5 | 5.0 | 9.0 | 0.00 | 0.14 | 0.00 | 48 | 1010.6 |
| 20260505064604 | 46 | 292 | 2.0 | 9.0 | 0.00 | 0.14 | 0.00 | 51 | 1010.4 |
| 20260505063104 | 45 | 321 | 3.0 | 13.0 | 0.00 | 0.14 | 0.00 | 50 | 1010.3 |
| 20260505061104 | 45 | 74 | 1.0 | 12.0 | 0.00 | 0.14 | 0.00 | 53 | 1010.2 |
| 20260505060114 | 45 | 246 | 2.0 | 10.0 | 0.00 | 0.14 | 0.00 | 54 | 1010.2 |
| 20260505054604 | 45 | 12 | 3.0 | 9.0 | 0.00 | 0.14 | 0.00 | 54 | 1010.2 |
| 20260505053603 | 44 | 5 | 7.0 | 12.0 | 0.00 | 0.14 | 0.00 | 53 | 1010.1 |
| 20260505053104 | 44 | 350 | 9.0 | 12.0 | 0.00 | 0.14 | 0.00 | 54 | 1010.1 |
| 20260505051103 | 44 | 352 | 2.0 | 8.0 | 0.00 | 0.14 | 0.00 | 65 | 1009.9 |
| 20260505050114 | 44 | 309 | 3.0 | 6.0 | 0.00 | 0.14 | 0.00 | 68 | 1009.8 |
| 20260505041103 | 43 | 265 | 1.0 | 3.0 | 0.00 | 0.14 | 0.00 | 76 | 1009.4 |
| 20260505040606 | 43 | 253 | 1.0 | 2.0 | 0.00 | 0.14 | 0.00 | 76 | 1009.4 |
| 20260505034604 | 43 | 0 | 0.0 | 2.0 | 0.00 | 0.14 | 0.00 | 79 | 1009.2 |